Location: Tierz
(42.1336°N, 0.3549°W)
Time: 14:21:02
(UTC+00:00)

Daily predictions for brighter satellites

Satellite Brightness Start Highest point End
(mag) Time Altitude Azimuth Time Altitude Azimuth Time Altitude Azimuth
Atlas Centaur 2 4.3 17:13:55 10° SW 17:20:43 31° SSE 17:27:55 10° ESE
Meteor 2-21 Rocket 4.5 17:17:15 10° N 17:23:22 64° E 17:29:25 10° SSE
NOAA 11 4.5 17:20:10 10° SE 17:25:20 46° ENE 17:30:30 10° N
Cosmos 44 3.6 17:21:15 10° SW 17:25:41 63° NW 17:30:25 10° NNE
Radarsat Rocket 4.3 17:20:54 10° SSE 17:26:58 76° WSW 17:32:48 10° NNW
Okean O Rocket 1.6 17:22:50 10° SSE 17:27:11 81° ENE 17:31:33 10° N
Cosmos 2228 3.0 17:23:05 10° S 17:27:19 90° SW 17:31:38 10° N
Cosmos 1340 3.5 17:24:26 10° NNE 17:27:46 29° ENE 17:31:06 10° SE
Cosmos 1726 Rocket 3.5 17:23:52 10° S 17:28:10 67° E 17:32:32 10° NNE
CZ-4 R/B 3.0 17:27:02 10° E 17:29:04 14° ENE 17:31:06 10° NNE
Meteor 2-14 Rocket 4.5 17:22:55 10° N 17:29:05 86° E 17:35:12 10° S
SL-4 R/B 3.5 17:30:53 10° NW 17:33:29 19° N 17:36:10 10° NE
Aureole 3 3.2 17:31:07 10° SSE 17:34:01 37° E 17:36:48 10° NNE
CORIOLIS 4.1 17:29:02 10° SSE 17:34:22 81° ENE 17:39:45 10° NNW
Cosmos 1758 Rocket 4.4 17:31:02 10° NNW 17:35:21 57° W 17:39:36 10° S
Cosmos 1346 Rocket 4.2 17:32:35 10° NNE 17:35:30 19° ENE 17:38:24 10° ESE
Cosmos 1980 Rocket 3.7 17:32:41 10° SE 17:35:41 15° E 17:38:41 10° ENE
Cosmos 2058 4.2 17:33:23 10° NNE 17:36:21 19° ENE 17:39:17 10° ESE
Cosmos 2297 Rocket 2.3 17:33:36 10° NNW 17:39:11 55° ENE 17:44:43 10° SE
Timation 2 Rocket 4.2 17:34:13 10° NNW 17:40:54 87° ENE 17:47:46 10° SSE
In-Cosmos 22 Rocket 4.4 17:36:05 10° N 17:41:15 46° ENE 17:46:31 10° SSE
CZ-2C R/B 4.2 17:38:06 10° ESE 17:42:43 26° ENE 17:47:14 10° NNE
Cosmos 1315 Rocket 4.0 17:41:35 10° SE 17:44:35 21° E 17:47:37 10° NE
Cosmos 1606 Rocket 4.2 17:40:20 10° SSW 17:44:39 62° W 17:49:02 10° N
YAOGAN 6 4.4 17:44:41 10° SSW 17:48:06 37° W 17:51:34 10° NNW
Cosmos 1553 Rocket 4.2 17:42:17 10° SSE 17:48:24 52° E 17:54:27 10° NNE
BREEZE-M R/B 4.2 17:50:31 10° NW 17:54:01 36° NNE 17:59:00 15° ENE
Meteor 2-10 Rocket 3.9 17:49:21 10° SSE 17:54:16 39° E 17:59:02 10° NNE
USA 305 3.8 17:51:34 10° NW 17:55:29 33° NNE 17:58:10 17° E
Cosmos 1455 3.1 17:53:14 10° SSE 17:56:26 27° E 17:59:39 10° NNE
FengYun 1-2 T 4.4 17:51:10 10° SSE 17:56:50 86° WSW 18:02:30 10° NNW
SKYMED 2 3.6 17:53:25 10° NNE 17:57:43 57° E 18:01:58 10° S
SeaSat 1 4.2 18:00:38 13° NE 18:01:28 14° NE 18:03:52 10° NNE
USA 306 3.7 17:58:04 10° NW 18:02:02 35° NNE 18:04:25 20° E
H-2A R/B 3.1 17:58:47 10° ESE 18:03:11 26° ENE 18:07:37 10° N
Okean-O 3.0 18:00:19 10° SE 18:04:26 40° ENE 18:08:35 10° N
Cosmos 2278 4.4 18:03:59 10° SSE 18:08:52 30° ESE 18:12:45 15° NE
NOSS 3-3 (A) 3.9 18:03:51 10° SSW 18:09:30 66° ESE 18:15:51 10° NE
NOSS 3-3 (C) 3.9 18:03:58 10° SSW 18:09:37 65° ESE 18:15:58 10° NE
Aureole 3 Rocket 3.4 18:05:58 10° SSW 18:09:56 76° W 18:15:29 10° N
MOS 1 Rocket 4.2 18:06:03 10° NE 18:10:11 28° E 18:14:30 10° SSE
SL-08 R/B 4.4 18:04:24 10° N 18:10:35 73° E 18:16:40 10° SSE
Cosmos 2219 3.4 18:07:02 10° NNW 18:12:48 78° WSW 18:18:31 10° SSE
Cosmos 1745 Rocket 4.0 18:10:51 10° N 18:17:06 59° E 18:23:20 10° SSE
Cosmos 44 Rocket 3.6 18:12:42 10° S 18:17:10 44° ESE 18:19:58 22° NE
Lacrosse 5 3.9 18:14:58 10° NNW 18:17:58 15° N 18:20:11 12° NE
ARGOS 4.1 18:17:21 22° E 18:19:03 26° ENE 18:23:30 10° N
Cosmos 2082 3.8 18:14:25 10° NNW 18:20:03 53° ENE 18:25:38 10° SE
Cosmos 1408 2.6 18:16:31 10° N 18:20:06 52° E 18:23:42 10° SSE
Cosmos 1656 4.1 18:16:25 10° SW 18:21:54 62° WNW 18:27:32 10° NNE
Cosmos 2058 Rocket 4.1 18:18:19 10° SSW 18:22:40 49° WNW 18:27:04 10° N
ATLAS 2AS CENTAUR R/B 3.8 18:17:18 10° NNW 18:23:35 27° NNE 18:26:17 22° ENE
Cosmos 968 Rocket 3.4 18:20:13 10° NNW 18:25:28 89° WSW 18:30:37 10° SSE
Cosmos 1386 Rocket 4.5 18:19:30 10° N 18:25:53 66° E 18:32:08 10° SSE
Cosmos 1689 Rocket 2.7 18:23:31 10° N 18:26:22 55° WNW 18:29:10 10° SSW
Cosmos 2369 3.6 18:27:27 10° SSW 18:33:09 75° ESE 18:38:51 10° NNE
Cosmos 1076 Rocket 3.4 18:30:19 10° N 18:34:32 59° E 18:38:44 10° SSE
IRS-1C Rocket 4.5 18:29:53 10° S 18:35:06 65° WSW 18:40:22 10° NNW
Cosmos 1939 Rocket 3.7 18:31:34 10° S 18:35:26 51° W 18:39:16 10° NNW
Cosmos 1892 3.3 18:32:55 10° NNW 18:36:46 59° W 18:40:34 10° S
CSL-04 Rocket 3.8 18:34:54 10° SE 18:40:15 53° ENE 18:45:36 10° N
Cosmos 2227 Rocket 2.8 18:38:10 10° NNW 18:43:41 56° WSW 18:49:11 10° S
COSMO-SKYMED 1 3.8 18:41:36 10° N 18:45:42 42° WNW 18:49:48 10° SW
Cosmos 2263 Rocket 3.3 18:41:02 10° N 18:45:07 26° NE 18:45:07 26° NE
USA 307 2.8 18:41:42 10° NW 18:45:58 65° NE 18:46:28 59° ENE
Cosmos 1709 Rocket 4.0 18:40:18 10° N 18:46:36 57° E 18:52:51 10° SSE
CZ-4C R/B 4.1 18:43:01 10° NNW 18:48:27 23° NNE 18:49:38 22° NE
OAO 2 Rocket 4.2 18:44:16 10° WSW 18:48:49 36° S 18:50:07 31° SSE
USA 308 2.7 18:46:40 10° NW 18:50:57 70° NE 18:51:15 67° ENE
Cosmos 1825 2.0 18:48:30 10° N 18:52:19 85° E 18:52:23 84° ESE
Helios 1A Rocket 3.8 18:49:01 10° S 18:53:01 51° W 18:57:02 10° NNW
Cosmos 1697 Rocket 3.1 18:49:48 10° SW 18:55:21 63° WNW 19:00:57 10° NNE
YAOGAN 1 2.7 18:51:57 10° S 18:56:15 72° WSW 19:00:35 10° NNW
Cosmos 883 Rocket 4.3 18:52:07 10° S 18:58:16 80° E 19:04:24 10° N
GPS 2-04 Rocket1 4.0 18:55:22 10° SW 18:58:37 30° S 18:58:37 30° S
Cosmos 1812 Rocket 3.9 18:58:54 10° SSW 19:03:15 64° W 19:07:37 10° N
CZ-4 R/B 2.3 19:00:01 10° S 19:03:44 45° W 19:07:26 10° NNW
Cosmos 1503 Rocket 4.3 19:00:26 10° NNW 19:05:38 68° WSW 19:10:15 13° S
Milstar 3 4.1 19:01:54 10° WSW 19:07:22 25° S 19:09:47 21° SSE
Cosmos 2315 Rocket 3.8 19:02:53 10° S 19:09:04 79° E 19:15:17 10° N
Atlas Centaur 2 4.0 19:02:13 10° WSW 19:09:41 36° S 19:12:40 29° SE
SL-4 R/B 3.5 19:10:12 10° NW 19:12:08 27° NNW 19:12:08 27° NNW
SJ-11-01 4.4 19:14:33 41° S 19:16:07 71° WSW 19:20:47 10° NNW
Cosmos 1354 Rocket 4.5 19:13:18 10° NNW 19:18:29 59° WSW 19:21:30 25° S
Cosmos 1980 Rocket 2.2 19:13:19 10° SSW 19:18:57 76° WNW 19:21:13 37° NNE
CZ-2C R/B 4.1 19:16:39 10° S 19:22:15 50° W 19:27:44 10° NNW
Timation 1 Rocket 4.5 19:21:52 10° NNW 19:27:52 72° WSW 19:29:28 49° S
USA 305 4.3 19:31:29 10° WNW 19:34:21 36° W 19:34:21 36° W
SeaSat 1 3.7 19:40:26 34° NNW 19:40:26 34° NNW 19:43:11 10° NNW
H-2A R/B 3.1 19:37:10 10° S 19:42:19 45° W 19:47:33 10° NNW
NOSS 3-4 (A) 3.8 19:46:18 10° NW 19:53:07 83° NNW 19:53:07 83° NNW
NOSS 3-4 (C) 3.8 19:46:25 10° NW 19:53:11 82° NNW 19:53:11 82° NNW
USA 215 4.1 19:57:31 37° N 19:57:31 37° N 20:02:24 10° NW
ARGOS 4.1 19:58:52 43° WSW 19:59:03 43° W 20:04:13 10° NNW
Lacrosse 5 4.1 19:57:51 10° NNW 19:59:23 18° NNW 19:59:23 18° NNW
ATLAS 2AS CENTAUR R/B 3.2 20:08:04 10° NW 20:13:44 55° NW 20:13:44 55° NW
Cosmos 2263 Rocket 4.1 20:24:28 10° NW 20:26:50 25° NW 20:26:50 25° NW
H-2A R/B (2) 4.4 20:04:52 10° W 20:30:29 36° SSW 20:30:54 36° SSW
CZ-4C R/B 4.0 20:30:51 10° NNW 20:34:50 37° NNW 20:34:50 37° NNW
